Olivia, MN

5:24 AM CST on November 22, 2019 (GMT -0600)
Olivia Regional

Weather History for KOVL - October, 2019

Change the Weather History Date:

Sunday, October 20, 2019

  Actual Average (KRWF) Record (KRWF)
Temperature  
Mean Temperature 48 °F -  
Max Temperature 62 °F 58 °F 90 °F (1947)
Min Temperature 35 °F 35 °F 15 °F (1952)
Degree Days  
Heating Degree Days 16    
Moisture  
Dew Point 35 °F    
Average Humidity 58    
Maximum Humidity 93    
Minimum Humidity 37    
Precipitation  
Precipitation 0.00 in - - ()
Sea Level Pressure  
Sea Level Pressure 29.75 in    
Wind  
Wind Speed 5 mph ()    
Max Wind Speed 21 mph    
Max Gust Speed 30 mph    
Visibility 10.0 miles    
Events Rain    
Averages and records for this station are not official NWS values.
T = Trace of Precipitation, MM = Missing Value Source: Averaged Metar Reports

Daily Weather History Graph

Daily Weather History Graph

Search for Another Location

Airport or City:

Astronomy

Oct. 20, 2019 Rise Set
Actual Time 7:41 AM CDT 6:27 PM CDT
Civil Twilight 7:12 AM CDT 6:56 PM CDT
Nautical Twilight 6:38 AM CDT 7:30 PM CDT
Astronomical Twilight 6:04 AM CDT 8:04 PM CDT
Moon 11:27 PM CDT (10/20) 2:20 PM CDT (10/20)
Length of Visible Light 11h 44m
Length of Day
10h 45m
Waning Gibbous, 59% of the Moon is Illuminated
Oct 20
Waning Gibbous
Oct 21
Last Quarter
Oct 27
New
Nov 4
First Quarter
Nov 12
Full

Hourly Weather History & Observations

Time (CDT) Temp. Windchill Dew Point Humidity Pressure Visibility Wind Dir Wind Speed Gust Speed Precip Events Conditions
12:00 AM 41.0 °F - 32.0 °F 70% 29.74 in 10.0 mi Calm Calm - N/A   Clear
12:16 AM 41.0 °F 39.0 °F 33.8 °F 76% 29.74 in 10.0 mi South 3.5 mph - N/A   Clear
12:35 AM 41.0 °F - 33.8 °F 76% 29.74 in 10.0 mi Calm Calm - N/A   Clear
1:02 AM 41.0 °F - 33.8 °F 76% 29.73 in 10.0 mi Calm Calm - N/A   Clear
1:17 AM 39.2 °F - 32.0 °F 75% 29.73 in 10.0 mi Calm Calm - N/A   Clear
1:35 AM 39.2 °F - 32.0 °F 75% 29.73 in 10.0 mi Calm Calm - N/A   Clear
1:36 AM 39.2 °F - 33.8 °F 81% 29.73 in 10.0 mi Calm Calm - N/A   Clear
2:03 AM 39.2 °F - 33.8 °F 81% 29.74 in 10.0 mi Calm Calm - N/A   Clear
2:19 AM 37.4 °F 34.9 °F 32.0 °F 81% 29.74 in 10.0 mi South 3.5 mph - N/A   Clear
2:35 AM 37.4 °F 34.9 °F 32.0 °F 81% 29.74 in 10.0 mi South 3.5 mph - N/A   Clear
3:05 AM 37.4 °F 34.9 °F 32.0 °F 81% 29.75 in 10.0 mi South 3.5 mph - N/A   Clear
3:20 AM 37.4 °F 32.8 °F 32.0 °F 81% 29.75 in 10.0 mi South 5.8 mph - N/A   Clear
3:36 AM 37.4 °F - 32.0 °F 81% 29.75 in 10.0 mi Calm Calm - N/A   Clear
3:55 AM 37.4 °F - 32.0 °F 81% 29.75 in 10.0 mi Calm Calm - N/A   Scattered Clouds
4:22 AM 37.4 °F - 33.8 °F 87% 29.76 in 10.0 mi Calm Calm - N/A   Scattered Clouds
4:37 AM 37.4 °F - 33.8 °F 87% 29.76 in 10.0 mi Calm Calm - N/A   Scattered Clouds
4:55 AM 37.4 °F 34.9 °F 32.0 °F 81% 29.76 in 10.0 mi SSE 3.5 mph - N/A   Scattered Clouds
4:56 AM 37.4 °F 34.9 °F 32.0 °F 81% 29.76 in 10.0 mi SSE 3.5 mph - N/A   Scattered Clouds
5:24 AM 37.4 °F - 33.8 °F 87% 29.77 in 10.0 mi Calm Calm - N/A   Clear
5:39 AM 37.4 °F 34.9 °F 33.8 °F 87% 29.77 in 10.0 mi SE 3.5 mph - N/A   Clear
5:55 AM 37.4 °F 34.9 °F 33.8 °F 87% 29.77 in 10.0 mi SSE 3.5 mph - N/A   Clear
5:56 AM 37.4 °F 34.9 °F 33.8 °F 87% 29.77 in 10.0 mi SSE 3.5 mph - N/A   Clear
6:25 AM 35.6 °F 32.8 °F 33.8 °F 93% 29.78 in 10.0 mi SE 3.5 mph - N/A   Clear
6:41 AM 37.4 °F 34.9 °F 32.0 °F 81% 29.79 in 10.0 mi SE 3.5 mph - N/A   Clear
6:56 AM 35.6 °F 31.7 °F 32.0 °F 87% 29.79 in 10.0 mi SE 4.6 mph - N/A   Clear
7:16 AM 37.4 °F 34.9 °F 32.0 °F 81% 29.79 in 10.0 mi ESE 3.5 mph - N/A   Scattered Clouds
7:42 AM 35.6 °F 32.8 °F 32.0 °F 87% 29.79 in 10.0 mi ESE 3.5 mph - N/A   Scattered Clouds
7:58 AM 37.4 °F 33.8 °F 32.0 °F 81% 29.79 in 10.0 mi SSE 4.6 mph - N/A   Clear
8:15 AM 37.4 °F 32.8 °F 33.8 °F 87% 29.80 in 10.0 mi SE 5.8 mph - N/A   Scattered Clouds
8:44 AM 42.8 °F 39.3 °F 33.8 °F 70% 29.80 in 10.0 mi SE 5.8 mph - N/A   Scattered Clouds
8:59 AM 44.6 °F 42.2 °F 33.8 °F 66% 29.80 in 10.0 mi SE 4.6 mph - N/A   Clear
9:15 AM 46.4 °F 43.5 °F 35.6 °F 66% 29.80 in 10.0 mi SE 5.8 mph - N/A   Clear
10:01 AM 53.6 °F - 35.6 °F 51% 29.80 in 10.0 mi SSE 9.2 mph - N/A   Clear
10:16 AM 53.6 °F - 35.6 °F 51% 29.80 in 10.0 mi SE 10.4 mph - N/A   Clear
10:35 AM 53.6 °F - 33.8 °F 47% 29.80 in 10.0 mi SSE 10.4 mph - N/A   Clear
11:02 AM 59.0 °F - 33.8 °F 39% 29.80 in 10.0 mi SE 11.5 mph - N/A   Clear
11:17 AM 59.0 °F - 33.8 °F 39% 29.80 in 10.0 mi SSE 12.7 mph - N/A   Clear
11:35 AM 59.0 °F - 33.8 °F 39% 29.81 in 10.0 mi SSE 12.7 mph - N/A   Clear
11:36 AM 59.0 °F - 33.8 °F 39% 29.81 in 10.0 mi SSE 11.5 mph - N/A   Clear
12:03 PM 59.0 °F - 35.6 °F 42% 29.81 in 10.0 mi SSE 8.1 mph - N/A   Clear
12:19 PM 60.8 °F - 35.6 °F 39% 29.81 in 10.0 mi SSE 8.1 mph 16.1 mph N/A   Clear
12:35 PM 60.8 °F - 35.6 °F 39% 29.81 in 10.0 mi SE 9.2 mph - N/A   Clear
1:05 PM 60.8 °F - 35.6 °F 39% 29.80 in 10.0 mi SE 9.2 mph - N/A   Scattered Clouds
1:20 PM 62.6 °F - 35.6 °F 37% 29.79 in 10.0 mi South 10.4 mph - N/A   Scattered Clouds
1:36 PM 62.6 °F - 35.6 °F 37% 29.79 in 10.0 mi SSE 9.2 mph - N/A   Clear
1:55 PM 60.8 °F - 35.6 °F 39% 29.78 in 10.0 mi SSE 11.5 mph - N/A   Clear
2:22 PM 60.8 °F - 35.6 °F 39% 29.77 in 10.0 mi SSE 10.4 mph - N/A   Clear
2:37 PM 60.8 °F - 35.6 °F 39% 29.77 in 10.0 mi SE 8.1 mph - N/A   Clear
2:55 PM 62.6 °F - 37.4 °F 39% 29.77 in 10.0 mi SE 10.4 mph 16.1 mph N/A   Clear
2:56 PM 62.6 °F - 37.4 °F 39% 29.77 in 10.0 mi SE 12.7 mph 16.1 mph N/A   Clear
3:23 PM 60.8 °F - 35.6 °F 39% 29.76 in 10.0 mi SSE 13.8 mph - N/A   Clear
3:39 PM 60.8 °F - 35.6 °F 39% 29.76 in 10.0 mi SE 9.2 mph - N/A   Clear
3:55 PM 60.8 °F - 35.6 °F 39% 29.77 in 10.0 mi SE 10.4 mph - N/A   Clear
4:25 PM 62.6 °F - 35.6 °F 37% 29.76 in 10.0 mi SE 10.4 mph - N/A   Scattered Clouds
4:40 PM 62.6 °F - 35.6 °F 37% 29.75 in 10.0 mi SE 13.8 mph 17.3 mph N/A   Scattered Clouds
4:56 PM 60.8 °F - 35.6 °F 39% 29.75 in 10.0 mi SE 16.1 mph - N/A   Scattered Clouds
5:15 PM 60.8 °F - 35.6 °F 39% 29.75 in 10.0 mi SE 9.2 mph - N/A   Scattered Clouds
5:42 PM 59.0 °F - 35.6 °F 42% 29.74 in 10.0 mi SE 6.9 mph - N/A   Clear
5:57 PM 59.0 °F - 37.4 °F 45% 29.74 in 10.0 mi ESE 5.8 mph - N/A   Clear
6:15 PM 59.0 °F - 37.4 °F 45% 29.73 in 10.0 mi East 6.9 mph - N/A   Clear
6:16 PM 59.0 °F - 37.4 °F 45% 29.73 in 10.0 mi East 6.9 mph - N/A   Clear
6:43 PM 57.2 °F - 37.4 °F 48% 29.73 in 10.0 mi ESE 8.1 mph - N/A   Clear
6:59 PM 57.2 °F - 37.4 °F 48% 29.72 in 10.0 mi East 10.4 mph - N/A   Clear
7:15 PM 55.4 °F - 37.4 °F 51% 29.72 in 10.0 mi ESE 10.4 mph - N/A   Clear
7:45 PM 55.4 °F - 37.4 °F 51% 29.72 in 10.0 mi ESE 10.4 mph 16.1 mph N/A   Scattered Clouds
8:00 PM 55.4 °F - 37.4 °F 51% 29.73 in 10.0 mi ESE 11.5 mph 16.1 mph N/A   Mostly Cloudy
8:15 PM 55.4 °F - 35.6 °F 47% 29.72 in 10.0 mi ESE 11.5 mph 19.6 mph N/A   Mostly Cloudy
8:35 PM 57.2 °F - 35.6 °F 44% 29.71 in 10.0 mi ESE 15.0 mph 23.0 mph N/A   Scattered Clouds
9:02 PM 57.2 °F - 33.8 °F 41% 29.71 in 10.0 mi ESE 12.7 mph 18.4 mph N/A   Overcast
9:17 PM 57.2 °F - 33.8 °F 41% 29.70 in 10.0 mi SE 20.7 mph 29.9 mph N/A   Mostly Cloudy
9:35 PM 59.0 °F - 33.8 °F 39% 29.69 in 10.0 mi ESE 18.4 mph 29.9 mph N/A   Mostly Cloudy
10:18 PM 57.2 °F - 33.8 °F 41% 29.68 in 10.0 mi ESE 15.0 mph 20.7 mph N/A   Overcast
10:35 PM 57.2 °F - 32.0 °F 38% 29.68 in 10.0 mi ESE 15.0 mph 24.2 mph N/A   Mostly Cloudy
10:36 PM 57.2 °F - 32.0 °F 38% 29.68 in 10.0 mi ESE 15.0 mph 24.2 mph N/A   Mostly Cloudy
11:05 PM 55.4 °F - 35.6 °F 47% 29.68 in 10.0 mi ESE 12.7 mph 21.9 mph N/A   Mostly Cloudy
11:20 PM 55.4 °F - 37.4 °F 51% 29.68 in 10.0 mi ESE 10.4 mph 18.4 mph N/A Rain Light Rain
11:35 PM 53.6 °F - 37.4 °F 54% 29.67 in 10.0 mi ESE 11.5 mph 17.3 mph N/A Rain Light Rain
11:55 PM 53.6 °F - 37.4 °F 54% 29.68 in 10.0 mi SE 10.4 mph - N/A   Overcast